| time (UTC) | temp C | wind direction | speed KPH | gust KPH | rain 1hr cm | rain 24hr cm | rain mn cm | humidity % | barometer mb |
| 20260502161837 | 18 | 9 | 3.2 | 12.9 | 0.00 | 0.00 | 0.00 | 30 | 1016.0 |
| 20260502160413 | 18 | 13 | 3.2 | 8.0 | 0.00 | 0.00 | 0.00 | 34 | 1016.0 |
| 20260502151842 | 14 | 208 | 0.0 | 3.2 | 0.00 | 0.00 | 0.00 | 43 | 1016.0 |
| 20260502150342 | 12 | 162 | 0.0 | 3.2 | 0.00 | 0.00 | 0.00 | 44 | 1016.1 |
| 20260502130353 | 0 | 219 | 0.0 | 0.0 | 0.00 | 0.00 | 0.00 | 75 | 1016.3 |
| 20260502123352 | 0 | 219 | 0.0 | 0.0 | 0.00 | 0.00 | 0.00 | 75 | 1016.3 |
| 20260502121825 | 0 | 209 | 0.0 | 0.0 | 0.00 | 0.00 | 0.00 | 76 | 1016.3 |
| 20260502120326 | 0 | 218 | 0.0 | 0.0 | 0.00 | 0.00 | 0.00 | 76 | 1016.4 |
| 20260502114833 | 0 | 218 | 0.0 | 0.0 | 0.00 | 0.00 | 0.00 | 76 | 1016.4 |
| 20260502113325 | 0 | 218 | 0.0 | 0.0 | 0.00 | 0.00 | 0.00 | 74 | 1016.4 |
| 20260502111840 | 0 | 218 | 0.0 | 0.0 | 0.00 | 0.00 | 0.00 | 75 | 1016.4 |
| 20260502110345 | 0 | 219 | 0.0 | 0.0 | 0.00 | 0.00 | 0.00 | 75 | 1016.4 |
| 20260502104834 | 0 | 232 | 0.0 | 0.0 | 0.00 | 0.00 | 0.00 | 75 | 1016.5 |
| 20260502103345 | 0 | 232 | 0.0 | 0.0 | 0.00 | 0.00 | 0.00 | 74 | 1016.5 |
| 20260502101843 | 0 | 232 | 0.0 | 0.0 | 0.00 | 0.00 | 0.00 | 73 | 1016.5 |
| 20260502100401 | 0 | 232 | 0.0 | 0.0 | 0.00 | 0.00 | 0.00 | 71 | 1016.6 |
| 20260502090333 | 0 | 193 | 0.0 | 0.0 | 0.00 | 0.00 | 0.00 | 72 | 1016.8 |
| 20260502070329 | 2 | 182 | 0.0 | 0.0 | 0.00 | 0.00 | 0.00 | 68 | 1018.1 |
| 20260502064850 | 3 | 182 | 0.0 | 0.0 | 0.00 | 0.00 | 0.00 | 67 | 1018.2 |
| 20260502063348 | 3 | 182 | 0.0 | 0.0 | 0.00 | 0.00 | 0.00 | 65 | 1018.2 |
| 20260502061839 | 3 | 182 | 0.0 | 1.6 | 0.00 | 0.00 | 0.00 | 66 | 1018.2 |
| 20260502060334 | 3 | 176 | 0.0 | 0.0 | 0.00 | 0.00 | 0.00 | 64 | 1018.1 |
| 20260502054839 | 4 | 176 | 0.0 | 0.0 | 0.00 | 0.00 | 0.00 | 63 | 1018.3 |
| 20260502053333 | 5 | 176 | 0.0 | 0.0 | 0.00 | 0.00 | 0.00 | 62 | 1018.3 |
| 20260502051828 | 5 | 176 | 0.0 | 0.0 | 0.00 | 0.00 | 0.00 | 62 | 1018.3 |
| 20260502050334 | 5 | 182 | 0.0 | 0.0 | 0.00 | 0.00 | 0.00 | 61 | 1018.3 |
| 20260502044853 | 6 | 182 | 0.0 | 0.0 | 0.00 | 0.00 | 0.00 | 59 | 1018.3 |
| 20260502043338 | 6 | 182 | 0.0 | 0.0 | 0.00 | 0.00 | 0.00 | 59 | 1018.4 |
| 20260502041855 | 7 | 182 | 0.0 | 0.0 | 0.00 | 0.00 | 0.00 | 57 | 1018.6 |
| 20260502040358 | 7 | 179 | 0.0 | 0.0 | 0.00 | 0.00 | 0.00 | 53 | 1018.5 |
| 20260502034903 | 8 | 201 | 0.0 | 0.0 | 0.00 | 0.00 | 0.00 | 53 | 1018.4 |
| 20260502033342 | 8 | 202 | 0.0 | 0.0 | 0.00 | 0.00 | 0.00 | 52 | 1018.4 |
| 20260502031825 | 9 | 202 | 0.0 | 0.0 | 0.00 | 0.00 | 0.00 | 50 | 1018.3 |
| 20260502030338 | 10 | 212 | 0.0 | 3.2 | 0.00 | 0.00 | 0.00 | 47 | 1018.2 |
| 20260502024857 | 11 | 355 | 0.0 | 0.0 | 0.00 | 0.00 | 0.00 | 45 | 1017.8 |
| 20260502023337 | 12 | 355 | 0.0 | 0.0 | 0.00 | 0.00 | 0.00 | 42 | 1017.7 |
| 20260502021821 | 13 | 355 | 0.0 | 0.0 | 0.00 | 0.00 | 0.00 | 38 | 1017.7 |
| 20260502020359 | 14 | 355 | 0.0 | 0.0 | 0.00 | 0.00 | 0.00 | 36 | 1017.7 |
| 20260502014828 | 15 | 355 | 0.0 | 0.0 | 0.00 | 0.00 | 0.00 | 35 | 1017.7 |
| 20260502013354 | 15 | 349 | 0.0 | 1.6 | 0.00 | 0.00 | 0.00 | 34 | 1017.6 |
| 20260502011836 | 15 | 360 | 0.0 | 3.2 | 0.00 | 0.00 | 0.00 | 34 | 1017.6 |
| 20260502010334 | 15 | 13 | 0.0 | 3.2 | 0.00 | 0.00 | 0.00 | 34 | 1017.6 |
| 20260502004829 | 16 | 5 | 0.0 | 4.8 | 0.00 | 0.00 | 0.00 | 33 | 1017.5 |
| 20260502003335 | 16 | 17 | 0.0 | 9.7 | 0.00 | 0.00 | 0.00 | 32 | 1017.5 |
| 20260502001840 | 17 | 360 | 0.0 | 4.8 | 0.00 | 0.00 | 0.00 | 30 | 1017.5 |
| 20260502000336 | 17 | 28 | 1.6 | 6.4 | 0.00 | 0.00 | 0.00 | 28 | 1017.6 |
| 20260501234834 | 17 | 303 | 0.0 | 6.4 | 0.00 | 0.00 | 0.00 | 29 | 1017.7 |
| 20260501233343 | 18 | 355 | 0.0 | 3.2 | 0.00 | 0.00 | 0.00 | 28 | 1017.6 |
| 20260501231844 | 18 | 355 | 0.0 | 3.2 | 0.00 | 0.00 | 0.00 | 29 | 1017.5 |
| 20260501230355 | 18 | 313 | 0.0 | 6.4 | 0.00 | 0.00 | 0.00 | 29 | 1017.7 |
| 20260501224845 | 18 | 150 | 0.0 | 4.8 | 0.00 | 0.00 | 0.00 | 28 | 1017.7 |
| 20260501223330 | 18 | 23 | 1.6 | 6.4 | 0.00 | 0.00 | 0.00 | 29 | 1017.7 |
| 20260501221839 | 17 | 343 | 1.6 | 8.0 | 0.00 | 0.00 | 0.00 | 29 | 1017.7 |
| 20260501220329 | 17 | 19 | 0.0 | 9.7 | 0.00 | 0.00 | 0.00 | 29 | 1017.7 |
| 20260501214859 | 17 | 324 | 0.0 | 12.9 | 0.00 | 0.00 | 0.00 | 29 | 1017.7 |
| 20260501213329 | 17 | 296 | 0.0 | 11.3 | 0.00 | 0.00 | 0.00 | 29 | 1017.9 |
| 20260501211828 | 17 | 355 | 1.6 | 8.0 | 0.00 | 0.00 | 0.00 | 28 | 1018.1 |
| 20260501210337 | 17 | 291 | 0.0 | 8.0 | 0.00 | 0.00 | 0.00 | 28 | 1018.2 |
| 20260501204827 | 18 | 11 | 3.2 | 12.9 | 0.00 | 0.00 | 0.00 | 29 | 1018.2 |
| 20260501203331 | 17 | 302 | 1.6 | 9.7 | 0.00 | 0.00 | 0.00 | 30 | 1018.2 |
| 20260501201827 | 17 | 36 | 3.2 | 9.7 | 0.00 | 0.00 | 0.00 | 30 | 1018.3 |
| 20260501200334 | 17 | 28 | 1.6 | 9.7 | 0.00 | 0.00 | 0.00 | 32 | 1018.3 |
| 20260501194852 | 17 | 288 | 1.6 | 9.7 | 0.00 | 0.00 | 0.00 | 33 | 1018.3 |
| 20260501193356 | 16 | 30 | 4.8 | 17.7 | 0.00 | 0.00 | 0.00 | 30 | 1018.3 |
| 20260501191826 | 16 | 337 | 4.8 | 14.5 | 0.00 | 0.00 | 0.00 | 30 | 1018.3 |
| 20260501190345 | 16 | 318 | 1.6 | 12.9 | 0.00 | 0.00 | 0.00 | 34 | 1018.4 |
| 20260501184839 | 16 | 23 | 6.4 | 22.5 | 0.00 | 0.00 | 0.00 | 33 | 1018.4 |
| 20260501183334 | 16 | 355 | 1.6 | 14.5 | 0.00 | 0.00 | 0.00 | 36 | 1018.6 |
| 20260501181825 | 16 | 349 | 3.2 | 16.1 | 0.00 | 0.00 | 0.00 | 35 | 1018.6 |
| 20260501180335 | 16 | 32 | 4.8 | 16.1 | 0.00 | 0.00 | 0.00 | 33 | 1018.4 |
| 20260501174855 | 15 | 28 | 4.8 | 14.5 | 0.00 | 0.00 | 0.00 | 33 | 1018.5 |
| 20260501173400 | 15 | 24 | 4.8 | 14.5 | 0.00 | 0.00 | 0.00 | 33 | 1018.7 |
| 20260501171856 | 15 | 13 | 8.0 | 19.3 | 0.00 | 0.00 | 0.00 | 35 | 1018.6 |
| 20260501170342 | 15 | 48 | 1.6 | 12.9 | 0.00 | 0.00 | 0.00 | 36 | 1018.7 |
| 20260501164831 | 14 | 25 | 4.8 | 11.3 | 0.00 | 0.00 | 0.00 | 35 | 1018.6 |
| 20260501163358 | 14 | 298 | 3.2 | 12.9 | 0.00 | 0.00 | 0.00 | 36 | 1018.6 |